Weather History for Oxford, CT

Change the Weather History Date:

Saturday, August 31, 2013

  Actual Average Record
Temperature  
Mean Temperature 74 °F -  
Max Temperature 80 °F 73 °F 87 °F (2010)
Min Temperature 69 °F 56 °F 51 °F (1996)
Cooling Degree Days 10    
Growing Degree Days 24 (Base 50)    
Moisture  
Dew Point 68 °F    
Average Humidity 86    
Maximum Humidity 88    
Minimum Humidity 74    
Precipitation  
Precipitation 0.06 in - - ()
Sea Level Pressure  
Sea Level Pressure 29.88 in    
Wind  
Wind Speed 4 mph (SSW)    
Max Wind Speed 12 mph    
Max Gust Speed -    
Visibility 5 miles    
Events      
Averages and records for this station are not official NWS values.
T = Trace of Precipitation, MM = Missing Value Source: NWS Daily Summary

Daily Weather History Graph

Daily Weather History Graph

Search for Another Location

Airport:

Trip Planner

Search our weather history database for the weather conditions in past years. The results will help you decide how hot, cold, wet, or windy it might be!

Date:

Astronomy

Aug. 31, 2013 Rise Set
Actual Time 6:17 AM EDT 7:26 PM EDT
Civil Twilight 5:49 AM EDT 7:55 PM EDT
Nautical Twilight 5:15 AM EDT 8:29 PM EDT
Astronomical Twilight 4:39 AM EDT 9:04 PM EDT
Moon 1:42 AM EDT (8/31) 4:25 PM EDT (8/31)
Length of Visible Light 14h 05m
Length of Day
13h 08m
Waning Crescent, 21% of the Moon is Illuminated
Aug 31
Waning Crescent
Sep 5
New
Sep 12
First Quarter
Sep 19
Full
Sep 26
Last Quarter

Hourly Weather History & Observations

Time (EDT) Temp. Heat Index Dew Point Humidity Pressure Visibility Wind Dir Wind Speed Gust Speed Precip Events Conditions
12:15 AM 69.8 °F - 66.2 °F 88% 29.90 in 6.0 mi SSW 3.5 mph - N/A   Clear
12:35 AM 69.8 °F - 66.2 °F 88% 29.90 in 6.0 mi SSW 3.5 mph - N/A   Clear
12:55 AM 69.8 °F - 66.2 °F 88% 29.90 in 5.0 mi SW 3.5 mph - N/A   Clear
1:15 AM 69.8 °F - 66.2 °F 88% 29.89 in 5.0 mi SW 3.5 mph - N/A   Clear
1:35 AM 69.8 °F - 66.2 °F 88% 29.89 in 5.0 mi WSW 3.5 mph - N/A   Clear
1:55 AM 69.8 °F - 66.2 °F 88% 29.89 in 4.0 mi SW 4.6 mph - N/A   Partly Cloudy
2:15 AM 69.8 °F - 66.2 °F 88% 29.89 in 4.0 mi SW 5.8 mph - N/A   Partly Cloudy
2:35 AM 69.8 °F - 66.2 °F 88% 29.88 in 3.0 mi SW 3.5 mph - N/A   Clear
2:55 AM 69.8 °F - 66.2 °F 88% 29.88 in 3.0 mi SW 3.5 mph - N/A   Partly Cloudy
3:15 AM 69.8 °F - 66.2 °F 88% 29.88 in 3.0 mi SW 3.5 mph - N/A   Partly Cloudy
3:35 AM 69.8 °F - 66.2 °F 88% 29.88 in 2.5 mi SW 4.6 mph - N/A   Clear
3:55 AM 69.8 °F - 66.2 °F 88% 29.88 in 2.5 mi SW 4.6 mph - N/A   Mostly Cloudy
4:15 AM 69.8 °F - 66.2 °F 88% 29.88 in 3.0 mi SW 4.6 mph - N/A   Mostly Cloudy
4:35 AM 69.8 °F - 66.2 °F 88% 29.88 in 3.0 mi SSW 5.8 mph - N/A   Mostly Cloudy
4:55 AM 69.8 °F - 66.2 °F 88% 29.88 in 3.0 mi SW 3.5 mph - 0.06 in   Overcast
5:15 AM 69.8 °F - 66.2 °F 88% 29.88 in 2.5 mi SSW 4.6 mph - N/A   Overcast
5:35 AM 69.8 °F - 66.2 °F 88% 29.88 in 2.5 mi SW 5.8 mph - N/A   Overcast
5:45 AM 69.8 °F - 66.2 °F 88% 29.88 in 2.0 mi Calm Calm - N/A   Overcast
6:50 AM 69.8 °F - 66.2 °F 88% 29.88 in 2.0 mi Calm Calm - N/A   Overcast
7:45 AM 69.8 °F - 66.2 °F 88% 29.88 in 2.0 mi Calm Calm - N/A   Overcast
8:45 AM 71.6 °F - 68.0 °F 88% 29.88 in 3.0 mi Calm Calm - N/A   Mostly Cloudy
9:55 AM 73.4 °F - 69.8 °F 88% 29.90 in 3.0 mi Calm Calm - N/A   Overcast
10:55 AM 75.2 °F - 69.8 °F 83% 29.89 in 5.0 mi SW 6.9 mph - N/A   Overcast
11:45 AM 77.0 °F - 69.8 °F 78% 29.88 in 6.0 mi SW 5.8 mph - N/A   Overcast
12:45 PM 78.8 °F - 71.6 °F 78% 29.88 in 6.0 mi North - - N/A   Scattered Clouds
1:45 PM 80.6 °F 84.6 °F 71.6 °F 74% 29.87 in 6.0 mi SSW 9.2 mph - N/A   Mostly Cloudy
2:45 PM 80.6 °F 84.6 °F 71.6 °F 74% 29.87 in 5.0 mi SW 8.1 mph - N/A   Mostly Cloudy
3:45 PM 78.8 °F - 69.8 °F 74% 29.87 in 5.0 mi SSW 11.5 mph - N/A   Mostly Cloudy
5:45 PM 78.8 °F - 69.8 °F 74% 29.85 in 4.0 mi SSW 5.8 mph - N/A   Haze
6:45 PM 77.0 °F - 69.8 °F 78% 29.86 in 5.0 mi SSW 6.9 mph - N/A   Haze
7:45 PM 75.2 °F - 69.8 °F 83% 29.85 in 8.0 mi South 6.9 mph - N/A   Clear
8:45 PM 73.4 °F - 69.8 °F 88% 29.85 in 8.0 mi SSW 6.9 mph - N/A   Clear
9:15 PM 73.4 °F - 69.8 °F 88% 29.87 in 10.0 mi South 4.6 mph - N/A   Clear
9:35 PM 73.4 °F - 69.8 °F 88% 29.88 in 10.0 mi South 3.5 mph - N/A   Clear
9:55 PM 73.4 °F - 69.8 °F 88% 29.89 in 8.0 mi SW 3.5 mph - N/A   Partly Cloudy
10:15 PM 73.4 °F - 69.8 °F 88% 29.88 in 8.0 mi South 4.6 mph - N/A   Mostly Cloudy
10:35 PM 73.4 °F - 69.8 °F 88% 29.88 in 8.0 mi SSW 3.5 mph - N/A   Scattered Clouds
10:55 PM 73.4 °F - 69.8 °F 88% 29.88 in 8.0 mi Calm Calm - N/A   Partly Cloudy
11:15 PM 73.4 °F - 69.8 °F 88% 29.88 in 9.0 mi SSW 4.6 mph - N/A   Mostly Cloudy
11:35 PM 73.4 °F - 69.8 °F 88% 29.88 in 8.0 mi Calm Calm - N/A   Mostly Cloudy
11:55 PM 73.4 °F - 69.8 °F 88% 29.88 in 8.0 mi Calm Calm - N/A   Partly Cloudy